Regional Weather Roundup
Issued by NWS

Home | Current Version | Previous Version | Graphics & Text | Print | Product List | Glossary On
Versions: 1 2 3 4 5 6 7 8 9 10 11 12 13 14 15 16 17 18 19 20 21 22 23 24 25 26 27 28 29 30 31 32 33 34 35 36 37 38 39 40 41 42 43 44 45 46 47 48 49 50
000
ASUS45 KCYS 060110
RWRWY

WYOMING REGIONAL WEATHER ROUNDUP
NATIONAL WEATHER SERVICE CHEYENNE WY
600 PM MST FRI FEB 05 2016

NOTE:  "FAIR" INDICATES FEW OR NO CLOUDS BELOW 12,000 FEET
WITH NO SIGNIFICANT WEATHER AND/OR OBSTRUCTIONS TO VISIBILITY.

WYZ001-060200-
YELLOWSTONE NATIONAL PARK

CITY           SKY/WX    TMP DP  RH WIND       PRES   REMARKS
LK YELLOWSTONE   N/A     18  13  80 VRB3      30.38S
W YELLOWSTONE  NOT AVBL

$$
WYZ002>013-054>058-071-098>099-060200-
NORTHERN WYOMING

CITY           SKY/WX    TMP DP  RH WIND       PRES   REMARKS
JACKSON        CLEAR     18  12  79 VRB6      30.40R WCI   9
CODY           FAIR      37  14  38 W20G25    30.17S WCI  27
GREYBULL       FAIR      30  17  58 SE3       30.24R
WORLAND        FAIR      26  17  68 SE10      30.24R WCI  16
SHERIDAN       PTCLDY    30  14  51 SE3       30.14S
BUFFALO        FAIR      29  11  47 W3        30.16F
GILLETTE       FAIR      29  15  56 SW15      30.17F WCI  18
HULETT         FAIR      32  21  64 SW13      30.17S WCI  22
NEWCASTLE      FAIR      28  18  64 CALM      30.21S

$$
WYZ014>020-022>026-101>103-060200-
CENTRAL WYOMING

CITY           SKY/WX    TMP DP  RH WIND       PRES   REMARKS
BIG PINEY      FAIR      21  13  71 NW9       30.36S WCI  11
PINEDALE       FAIR      21  14  73 NW16      30.35R WCI   7
DUBOIS         MOCLDY    27  14  59 W30       30.28R WCI  10
LANDER         FAIR      25  14  63 NW3       30.23S
RIVERTON       FAIR      22  10  60 N3        30.24S
CASPER         FAIR      23  12  62 SW18      30.25S WCI   9
DOUGLAS        FAIR      19  10  68 NW8         N/A  WCI   9

$$
WYZ021-027>030-104>119-060200-
SOUTHERN WYOMING

CITY           SKY/WX    TMP DP  RH WIND       PRES   REMARKS
EVANSTON       CLOUDY    24  18  77 W12       30.44S WCI  13
FORT BRIDGER   PTCLDY    25  19  80 W18       30.45R WCI  11
ROCK SPRINGS   FAIR      23  17  78 W24G33    30.36R WCI   7
DIXON          CLOUDY    23  13  66 S8        30.44S WCI  14
RAWLINS        FAIR      20  12  71 W17G26    30.31R WCI   5
SARATOGA       FAIR      16   9  73 S7        30.35S WCI   6
LARAMIE        FAIR      18   4  54 VRB5      30.25R WCI  11
CHEYENNE       FAIR      23   9  55 W7        30.23R WCI  15
TORRINGTON     FAIR      26  15  63 W6        30.26S WCI  19
PINE BLUFFS    FAIR      21  12  68 NW8       30.27S WCI  12

$$



USA.gov is the U.S. government's official web portal to all federal, state and local government web resources and services.